MARS 2020 (45983 NORAD) Tracking and Keplerian Element Data

This shows tracking and keplerian element data for the satellite.

Feedback or suggestion? Click here.




ElementValue
Catalog45983
NameMARS 2020
Epoch Orbit1
Epoch Day212.56905538
Epoch Year2020
RAAN317.6209
Inclination32.2087
Eccentricity0.0065
Argument of Perigee265.1078
Mean Anonmoly118.6367
Mean Motion1.42484766
Decay Rate-1.19E-06
L11 45983U 20052A 20212.56905538 -.00000119 00000-0 00000+0 0 9997
L22 45983 32.2087 317.6209 0065000 265.1078 118.6367 1.42484766 16

Live tracking and technical data element details for MARS 2020 (NORAD 45983). MARS 2020 can be tracked NOW for your location showing map with azimuth and elevation plus other details from your city location.

Track the satellite on the map from your city or location and see movement details for azimuth, elevation, latitude, longitude, range, height, and movement on the map or in text.







IsCatalogInMostPopularTable: catalog: 45983, numindb: 23
Update: records affected: 1



GetName: 45983 MARS 2020

Hit Count: updated at: Wed, 02 Dec 2020 06:33:36 GMT